[[{"header":{"parameterUnit":"m.s-1","parameterCategory":1,"la1":30.2991,"la2":30.254,"lo1":-89.0895,"lo2":-89.0444,"dy":0.0017,"dx":0.0017,"nx":28,"ny":28,"refTime":"2023-04-02T21:00:00:Z","depth":0,"parameterNumber":2,"parameterNumberName":"U-component_of_WINDS"},"data":[0,0,0,0,0,0,0,0,0,0,0,0,0,0,0,0,0,0,0,0,0,0,0,0,0,0,0,0,0,0,0,0,0,0,0,0,0,0,0,0,0,0,0,0,0,0,0,0,0,0,0,0,0,0,0,0,0,0,-3.0277,-3.0277,0,-3.0306,-3.0306,-3.0306,-3.0287,-3.0286,-3.0285,-3.0284,-3.0312,-3.0313,-3.0315,0,0,0,0,0,0,0,0,0,0,0,0,0,-3.0204,-3.0205,-3.0277,-3.0277,-3.0277,-3.0305,-3.0306,-3.0306,-3.0287,-3.0286,-3.0285,-3.0284,-3.0311,-3.0313,-3.0315,0,0,0,0,0,0,0,0,0,0,0,0,0,-3.0234,-3.0206,-3.0277,-3.0271,-3.0271,-3.0305,-3.0306,-3.0306,-3.0287,-3.0286,-3.0284,-3.0283,-3.0311,-3.0313,-3.0315,-3.0356,0,0,-3.0322,-3.0323,0,0,0,0,0,0,0,0,-3.0233,-3.0237,-3.0272,-3.0272,-3.0271,-3.0291,-3.029,-3.0323,-3.0287,-3.0281,-3.0284,-3.0283,-3.0306,-3.0309,-3.0317,-3.0357,-3.0358,-3.0323,-3.0324,-3.0325,-3.0326,0,0,0,0,0,0,0,-3.0231,-3.0236,-3.0288,-3.0272,-3.0272,-3.0267,-3.027,-3.0296,-3.03,-3.0281,-3.028,-3.0284,-3.0306,-3.0315,-3.0317,-3.0359,-3.0322,-3.0325,-3.0326,-3.0327,-3.0435,-3.0436,0,0,0,0,0,0,-3.0229,-3.0234,-3.0287,-3.0289,-3.0249,-3.0269,-3.0273,-3.0286,-3.03,-3.0301,-3.0285,-3.0283,-3.0311,-3.0315,-3.0318,-3.0367,-3.0325,-3.0327,-3.0328,-3.0434,-3.0435,-3.0437,0,0,0,0,0,0,-3.0228,-3.0234,-3.0286,-3.0261,-3.0267,-3.0272,-3.0287,-3.0287,-3.0296,-3.0303,-3.0303,-3.0293,-3.031,-3.0315,-3.0347,-3.0368,-3.0328,-3.033,-3.0432,-3.0434,-3.0436,-3.0465,0,0,0,0,0,0,-3.0226,-3.0234,-3.0249,-3.0262,-3.0269,-3.0315,-3.0289,-3.0289,-3.0301,-3.0298,-3.0311,-3.0312,-3.031,-3.0344,-3.0349,-3.037,-3.0332,-3.043,-3.0433,-3.0435,-3.0462,-3.0468,-3.0472,0,0,0,0,0,-3.0223,-3.0255,-3.025,-3.0257,-3.0288,-3.0316,-3.032,-3.0317,-3.0302,-3.0318,-3.0322,-3.0311,-3.0365,-3.0347,-3.0353,-3.0375,-3.0429,-3.0432,-3.0435,-3.0459,-3.0466,-3.0472,0,0,0,0,0,0,-3.0244,-3.0257,-3.0251,-3.0289,-3.0301,-3.0312,-3.0332,-3.0325,-3.0341,-3.0338,-3.0334,-3.0337,-3.0371,-3.0376,-3.0356,-3.0416,-3.0394,-3.0399,-3.0411,-3.0417,-3.0422,-3.042,-3.0334,0,0,0,0,0,-3.0253,-3.0275,-3.0285,-3.0317,-3.0324,-3.0327,-3.0339,-3.0336,-3.0349,-3.0354,-3.036,-3.0373,-3.0392,-3.0405,-3.0424,-3.0463,-3.0465,-3.0481,-3.0487,-3.0491,-3.0495,-3.0516,-3.0523,-3.0448,-3.0448,-3.0448,0,0,-3.0272,-3.0282,-3.0295,-3.0321,-3.0331,-3.0353,-3.0331,-3.0356,-3.0372,-3.0357,-3.0388,-3.0394,-3.0407,-3.0443,-3.046,-3.0449,-3.0516,-3.0495,-3.0498,-3.05,-3.052,-3.0527,-3.0534,-3.045,-3.045,-3.0449,0,0,-3.0317,-3.0327,-3.0355,-3.0366,-3.0381,-3.0383,-3.039,-3.0403,-3.0406,-3.0437,-3.0427,-3.0446,-3.048,-3.0491,-3.05,-3.0552,-3.0542,-3.0558,-3.0585,-3.0606,-3.0612,-3.0617,-3.0635,-3.0642,-3.0562,-3.0562,-3.0562,0,-3.0338,-3.0372,-3.037,-3.0396,-3.0407,-3.0397,-3.0425,-3.0435,-3.0455,-3.0464,-3.0452,-3.0495,-3.0503,-3.0542,-3.0555,-3.0563,-3.057,-3.0556,-3.0611,-3.0616,-3.0621,-3.0638,-3.0645,-3.0564,-3.0564,-3.0563,-3.0563,0,-3.0397,-3.042,-3.0441,-3.0462,-3.0477,-3.0503,-3.0506,-3.052,-3.0517,-3.052,-3.0553,-3.0563,-3.0583,-3.0592,-3.0589,-3.0631,-3.0624,-3.0612,-3.059,-3.063,-3.0646,-3.0653,-3.0566,-3.0566,-3.0565,-3.0565,0,0,-3.0454,-3.0476,-3.0483,-3.0493,-3.051,-3.0528,-3.0554,-3.0575,-3.0588,-3.0603,-3.0625,-3.0655,-3.0644,-3.0655,-3.0653,-3.0672,-3.0712,-3.0658,-3.0658,-3.0667,-3.0758,-3.0766,-3.0774,-3.0706,-3.0707,-3.0708,-3.0757,0,-3.05,-3.0547,-3.0547,-3.059,-3.0612,-3.0603,-3.0626,-3.0639,-3.0644,-3.0662,-3.0667,-3.0688,-3.0673,-3.068,-3.0698,-3.0703,-3.073,-3.07,-3.0726,-3.0727,-3.0721,-3.0782,-3.0791,-3.0836,-3.0763,-3.0764,-3.0765,0,-3.0559,-3.0578,-3.0623,-3.0638,-3.0647,-3.0668,-3.0688,-3.0706,-3.0721,-3.0723,-3.0736,-3.0731,-3.0758,-3.0737,-3.0774,-3.0753,-3.0764,-3.0769,-3.077,-3.0772,-3.0747,-3.0784,-3.085,-3.0857,-3.0775,-3.0774,-3.0773,0,-3.0596,-3.0632,-3.0664,-3.0673,-3.0691,-3.0706,-3.0714,-3.0728,-3.0741,-3.0758,-3.0766,-3.0786,-3.0797,-3.0812,-3.0813,-3.0798,-3.085,-3.0829,-3.0852,-3.0852,-3.0862,-3.0862,-3.093,-3.0871,-3.0871,-3.0871,-3.0871,0,-3.0647,-3.0675,-3.0681,-3.07,-3.0732,-3.0732,-3.0763,-3.077,-3.0782,-3.0803,-3.0796,-3.0816,-3.0816,-3.0836,-3.0837,-3.0867,-3.0872,-3.0874,-3.0874,-3.0874,-3.0874,-3.088,-3.0877,-3.0873,-3.0873,-3.0872,-3.0872,0,-3.0693,-3.0698,-3.0732,-3.0747,-3.0752,-3.0774,-3.0787,-3.0806,-3.081,-3.0836,-3.0842,-3.0849,-3.0872,-3.0875,-3.0902,-3.0902,-3.0939,-3.0936,-3.0934,-3.0933,-3.0956,-3.0953,-3.103,-3.104,-3.0976,-3.0976,-3.0977,0,-3.0724,-3.0746,-3.0764,-3.0778,-3.0787,-3.0809,-3.0823,-3.0824,-3.0839,-3.0858,-3.0874,-3.0897,-3.0915,-3.0952,-3.0959,-3.0979,-3.0976,-3.1002,-3.0979,-3.0979,-3.0976,-3.0974,-3.0976,-3.1006,-3.1006,-3.1007,-3.1007,0,-3.078,-3.0781,-3.0802,-3.0823,-3.084,-3.0857,-3.0873,-3.0884,-3.0888,-3.0905,-3.0929,-3.0943,-3.0971,-3.0993,-3.1014,-3.1021,-3.1015,-3.1015,-3.1021,-3.1021,-3.1019,-3.102,-3.0945,-3.1013,-3.1012,-3.1012,-3.1011,-3.1011,-3.0819,-3.0838,-3.0854,-3.0877,-3.0889,-3.0905,-3.0923,-3.0931,-3.0951,-3.0974,-3.0974,-3.1,-3.1015,-3.1042,-3.1052,-3.1072,-3.1064,-3.1073,-3.1075,-3.1077,-3.1079,-3.1017,-3.1076,-3.1076,-3.1076,-3.1076,-3.1075,0,-3.0873,-3.0884,-3.0905,-3.0928,-3.0946,-3.094,-3.0958,-3.0973,-3.0997,-3.1011,-3.103,-3.1058,-3.108,-3.1089,-3.1111,-3.1125,-3.1123,-3.1131,-3.1129,-3.1131,-3.1086,-3.1078,-3.1132,-3.1132,-3.1132,-3.1132,-3.1132,-3.1132,-3.0904,-3.0936,-3.094,-3.0978,-3.0988,-3.1014,-3.1025,-3.1039,-3.1051,-3.1082,-3.1101,-3.1108,-3.112,-3.1143,-3.1163,-3.1165,-3.1173,-3.1182,-3.1183,-3.114,-3.1134,-3.1129,-3.1121,-3.1184,-3.1184,-3.1227,-3.1227,-3.1227]},{"header":{"parameterUnit":"m.s-1","parameterCategory":1,"la1":30.2991,"la2":30.254,"lo1":-89.0895,"lo2":-89.0444,"dy":0.0017,"dx":0.0017,"nx":28,"ny":28,"refTime":"2023-04-02T21:00:00:Z","depth":0,"parameterNumber":3,"parameterNumberName":"V-component_of_WINDS"},"data":[0,0,0,0,0,0,0,0,0,0,0,0,0,0,0,0,0,0,0,0,0,0,0,0,0,0,0,0,0,0,0,0,0,0,0,0,0,0,0,0,0,0,0,0,0,0,0,0,0,0,0,0,0,0,0,0,0,0,5.3154,5.3154,0,5.3159,5.3159,5.3159,5.312,5.3119,5.3118,5.3116,5.3115,5.3116,5.3117,0,0,0,0,0,0,0,0,0,0,0,0,0,5.3109,5.311,5.3154,5.3154,5.3154,5.3159,5.3159,5.3159,5.312,5.3119,5.3117,5.3116,5.3115,5.3116,5.3117,0,0,0,0,0,0,0,0,0,0,0,0,0,5.3123,5.3111,5.3154,5.3136,5.3134,5.3159,5.3159,5.3159,5.312,5.3119,5.3117,5.3115,5.3114,5.3116,5.3117,5.3159,0,0,5.3122,5.3122,0,0,0,0,0,0,0,0,5.3122,5.3124,5.3138,5.3137,5.3135,5.3137,5.3143,5.3159,5.3121,5.3125,5.3116,5.3115,5.3123,5.3124,5.3128,5.3159,5.3158,5.3122,5.3123,5.3123,5.3124,0,0,0,0,0,0,0,5.3121,5.3124,5.3156,5.3138,5.3137,5.3126,5.3126,5.3146,5.3133,5.3125,5.3122,5.3123,5.3122,5.3127,5.3128,5.3158,5.3122,5.3123,5.3124,5.3125,5.3229,5.3231,0,0,0,0,0,0,5.3123,5.3124,5.3156,5.3156,5.3125,5.3129,5.3129,5.3138,5.3133,5.3131,5.3125,5.3121,5.3125,5.3126,5.3128,5.318,5.3123,5.3125,5.3126,5.3227,5.3229,5.3231,0,0,0,0,0,0,5.3123,5.3127,5.3156,5.3139,5.3142,5.3131,5.3142,5.3139,5.3144,5.3133,5.313,5.3132,5.3124,5.3126,5.3153,5.3179,5.3125,5.3127,5.3225,5.3228,5.323,5.3282,0,0,0,0,0,0,5.3121,5.3127,5.3142,5.314,5.3143,5.3181,5.3143,5.314,5.3147,5.3143,5.3139,5.3137,5.3123,5.3151,5.3155,5.318,5.3128,5.3222,5.3226,5.3229,5.3278,5.3286,5.3293,0,0,0,0,0,5.312,5.3154,5.3143,5.3147,5.3163,5.3183,5.3185,5.317,5.3149,5.3165,5.3159,5.3137,5.3176,5.3154,5.3158,5.3184,5.3221,5.3225,5.3229,5.3274,5.3284,5.3293,0,0,0,0,0,0,5.3155,5.3153,5.3141,5.3175,5.318,5.3176,5.3195,5.318,5.3189,5.3184,5.3164,5.3163,5.3195,5.3192,5.3168,5.3227,5.3194,5.32,5.3227,5.3237,5.3245,5.3245,5.3129,0,0,0,0,0,5.3168,5.3186,5.3182,5.3212,5.3216,5.3206,5.3214,5.3203,5.3206,5.3207,5.3202,5.3205,5.3219,5.3227,5.3238,5.3277,5.3278,5.3297,5.3305,5.3312,5.3316,5.3341,5.3351,5.3245,5.3245,5.3245,0,0,5.3191,5.3193,5.3204,5.322,5.3222,5.3242,5.3207,5.3227,5.3242,5.3209,5.3236,5.3234,5.3236,5.3271,5.3285,5.3269,5.3346,5.3317,5.3322,5.3323,5.3347,5.3357,5.3366,5.3248,5.3248,5.3247,0,0,5.3246,5.3248,5.3276,5.3281,5.3287,5.3282,5.3289,5.3289,5.3287,5.3315,5.3293,5.3309,5.3331,5.3335,5.334,5.3404,5.3385,5.3408,5.3448,5.3473,5.3481,5.3489,5.3515,5.3524,5.3413,5.3413,5.3413,0,5.3275,5.3305,5.3292,5.3316,5.3325,5.3301,5.333,5.3335,5.3343,5.335,5.3332,5.3364,5.3363,5.34,5.3417,5.3421,5.343,5.3408,5.3481,5.3489,5.3495,5.352,5.3529,5.3416,5.3416,5.3415,5.3415,0,5.3342,5.3363,5.3385,5.3399,5.341,5.3436,5.3428,5.3441,5.343,5.3427,5.3458,5.3457,5.347,5.3478,5.3465,5.3516,5.3506,5.3485,5.3452,5.3509,5.3532,5.3541,5.342,5.3419,5.3418,5.3417,0,0,5.3414,5.3426,5.3435,5.3443,5.3451,5.3467,5.3494,5.351,5.3523,5.3531,5.3554,5.3577,5.356,5.3566,5.3554,5.3576,5.3632,5.3553,5.3553,5.357,5.3691,5.3708,5.3719,5.362,5.3621,5.3623,5.3692,0,5.347,5.3519,5.3512,5.3558,5.358,5.3561,5.3585,5.3592,5.3591,5.3609,5.3606,5.3624,5.3598,5.3603,5.3623,5.3621,5.3656,5.3615,5.3642,5.3643,5.3644,5.3731,5.3747,5.3813,5.3701,5.3702,5.3703,0,5.3541,5.3558,5.3608,5.3619,5.3627,5.3649,5.3667,5.3684,5.3693,5.3691,5.3702,5.3688,5.3716,5.3684,5.3724,5.3696,5.3707,5.3708,5.371,5.3713,5.3677,5.3737,5.3832,5.3843,5.3716,5.3715,5.3714,0,5.3594,5.3627,5.3664,5.3671,5.3683,5.37,5.3705,5.3714,5.3726,5.3741,5.375,5.3766,5.3776,5.3789,5.3781,5.3758,5.3824,5.379,5.3824,5.3824,5.3838,5.3838,5.3938,5.3843,5.3842,5.3842,5.3842,0,5.3657,5.369,5.3688,5.371,5.3747,5.3739,5.3775,5.3778,5.3788,5.381,5.3793,5.3815,5.3802,5.3823,5.3817,5.3853,5.3856,5.3856,5.3854,5.3859,5.3859,5.3866,5.3862,5.3845,5.3844,5.3844,5.3843,0,5.3721,5.3721,5.376,5.3771,5.3775,5.3802,5.3811,5.3833,5.3832,5.3862,5.3868,5.3867,5.3892,5.3886,5.391,5.3907,5.3954,5.3944,5.3951,5.395,5.3986,5.3983,5.4095,5.4111,5.4003,5.4004,5.4005,0,5.3762,5.3788,5.3804,5.382,5.3829,5.3854,5.3868,5.3862,5.3878,5.3895,5.3915,5.3939,5.3958,5.3998,5.3999,5.402,5.4013,5.4051,5.4015,5.4021,5.4017,5.4016,5.402,5.4058,5.4059,5.406,5.4061,0,5.3837,5.3838,5.3861,5.3886,5.3905,5.3923,5.3939,5.3953,5.3949,5.3968,5.3995,5.401,5.404,5.4065,5.4085,5.409,5.4076,5.4072,5.4082,5.4087,5.4091,5.4093,5.3973,5.4069,5.4069,5.4068,5.4067,5.4067,5.3893,5.3917,5.3934,5.3962,5.3975,5.3992,5.4015,5.4021,5.4044,5.407,5.4065,5.4097,5.411,5.4137,5.4145,5.417,5.4155,5.4168,5.4172,5.4175,5.4182,5.4087,5.4173,5.4173,5.4172,5.4172,5.4172,0,5.3969,5.3981,5.4007,5.4034,5.4057,5.4045,5.4064,5.4083,5.4113,5.4128,5.415,5.4183,5.4209,5.4215,5.4239,5.4259,5.4253,5.4265,5.4264,5.4267,5.4191,5.4182,5.427,5.427,5.427,5.427,5.427,5.427,5.4012,5.4054,5.4058,5.4107,5.4118,5.4152,5.4165,5.4182,5.4195,5.4235,5.4258,5.4262,5.4275,5.4301,5.4325,5.4326,5.4337,5.4353,5.4352,5.4281,5.4271,5.4262,5.4253,5.4355,5.4355,5.4425,5.4426,5.4426]}]]